Total_Precipitation_Accumulation
0.21 0.39 0.88 1.43 2.47 2.78 2.13 1.30 0.93 0.85 0.89 0.87 0.80 0.85 0.96 1.22 1.74 2.76 2.74 2.32 1.81 1.84 2.34 2.51 2.76 2.64 2.52 2.40 2.43 2.58 2.64 2.45 2.27 2.25 2.32 2.35 2.38 2.26 2.29 2.38 2.44 2.47 2.41 2.49 2.69 2.66 2.75 2.80 2.79
0.37 0.69 1.30 2.22 2.93 2.38 1.88 1.14 0.72 0.68 0.73 0.87 0.89 0.81 0.73 0.85 0.99 1.51 2.14 2.26 1.57 1.46 1.80 1.92 2.26 2.33 2.34 2.22 2.29 2.44 2.40 2.24 2.16 2.07 2.20 2.29 2.34 2.35 2.34 2.44 2.53 2.57 2.51 2.57 2.66 2.65 2.73 2.79 2.78
0.55 0.85 1.55 2.45 2.09 1.68 1.53 0.98 0.64 0.48 0.64 0.92 0.95 0.70 0.81 1.13 1.19 1.57 1.89 1.80 1.44 1.38 1.53 1.80 2.09 2.14 2.16 2.07 2.08 2.14 2.08 2.02 2.03 2.05 2.13 2.22 2.33 2.41 2.43 2.47 2.61 2.82 2.89 2.84 2.76 2.79 2.81 2.78 2.67
0.76 1.09 1.61 1.84 1.27 0.85 0.81 0.75 0.64 0.59 0.77 0.91 0.82 0.75 0.97 1.32 1.33 1.42 1.41 1.36 1.20 1.42 1.56 1.80 2.16 2.12 2.07 2.00 1.93 1.89 1.89 1.91 1.94 2.02 2.19 2.29 2.34 2.36 2.41 2.50 2.68 2.99 3.02 2.78 2.79 2.88 2.82 2.83 2.81
0.92 1.44 2.01 1.57 1.02 0.68 0.52 0.50 0.55 0.70 0.84 0.95 0.83 0.89 1.32 1.48 1.18 1.09 1.06 1.24 1.30 1.56 1.78 1.97 2.25 2.27 2.24 2.08 1.92 1.81 1.73 1.81 1.85 1.92 2.12 2.25 2.27 2.21 2.26 2.45 2.53 2.57 2.70 2.81 2.88 2.86 2.79 2.86 2.85
1.19 1.51 1.72 1.25 0.78 0.55 0.47 0.46 0.59 0.76 0.76 0.82 0.93 1.11 1.70 1.67 1.27 1.12 1.12 1.30 1.46 1.60 1.85 2.20 2.45 2.58 2.49 2.25 1.99 1.84 1.75 1.70 1.72 1.82 1.89 2.03 2.13 2.18 2.34 2.46 2.33 2.23 2.38 2.69 2.85 2.84 2.87 2.86 2.85
1.29 1.46 1.35 0.93 0.68 0.57 0.52 0.49 0.53 0.68 0.76 0.96 0.98 1.16 1.76 1.93 1.45 1.13 1.28 1.63 1.80 1.79 1.75 2.08 2.41 2.56 2.64 2.45 2.07 1.94 1.83 1.66 1.65 1.68 1.74 1.83 2.00 2.09 2.24 2.38 2.34 2.22 2.25 2.52 2.74 2.76 3.02 2.89 2.67
0.85 0.99 1.04 0.78 0.63 0.54 0.43 0.42 0.52 0.68 0.79 0.85 0.97 1.18 1.52 1.60 1.34 1.28 1.57 2.08 2.36 2.27 1.97 1.75 1.91 2.30 2.49 2.33 2.19 2.11 1.83 1.59 1.61 1.72 1.90 2.11 2.24 2.27 2.36 2.36 2.55 2.37 2.27 2.48 2.69 2.76 2.86 2.79 2.78
0.58 0.85 0.92 0.65 0.48 0.43 0.40 0.43 0.46 0.51 0.61 0.84 1.08 1.28 1.27 1.10 1.13 1.39 1.77 2.21 2.51 2.36 2.21 1.93 1.82 1.98 2.18 2.02 1.84 2.09 1.91 1.75 1.91 2.22 2.42 2.59 2.66 2.43 2.52 2.43 2.89 2.79 2.71 2.90 3.00 3.03 3.13 3.23 3.28
0.52 0.71 0.59 0.39 0.31 0.31 0.33 0.37 0.39 0.54 0.86 1.30 1.56 1.47 1.26 1.14 1.28 1.57 1.86 2.01 2.11 2.17 2.13 2.15 1.95 1.98 2.04 1.88 2.10 2.59 2.28 2.28 2.59 2.77 2.69 3.24 3.44 3.20 2.55 2.67 3.25 3.37 3.42 3.51 3.49 3.64 3.56 3.45 3.47
0.37 0.42 0.32 0.22 0.20 0.25 0.27 0.29 0.36 0.58 1.13 1.60 1.80 1.50 1.32 1.34 1.48 1.63 2.03 2.20 2.30 2.31 2.18 2.25 2.13 2.09 2.23 2.43 2.43 2.70 2.84 3.03 3.21 3.23 3.27 3.65 3.47 3.07 2.78 3.04 3.48 3.61 3.58 3.59 3.69 3.84 3.44 3.42 3.59
0.19 0.16 0.16 0.14 0.14 0.19 0.22 0.28 0.45 0.70 1.14 1.41 1.32 1.16 1.16 1.46 1.67 1.87 2.21 2.55 2.65 2.76 2.71 2.50 2.38 2.61 2.77 2.71 2.61 2.50 2.37 2.49 2.79 2.95 2.91 3.43 3.88 3.74 3.59 3.72 3.64 3.83 4.02 4.29 3.94 3.90 3.73 3.72 3.60
0.17 0.15 0.14 0.13 0.14 0.19 0.20 0.28 0.47 0.78 0.99 1.03 0.91 0.95 1.23 1.59 1.86 2.35 2.84 2.91 2.89 3.18 3.36 3.18 3.06 3.06 2.95 3.04 2.70 2.33 2.30 2.18 2.19 2.60 2.91 3.14 3.56 3.74 3.80 3.62 3.60 3.43 3.58 3.72 3.74 3.43 3.57 3.80 3.81
0.13 0.12 0.13 0.14 0.16 0.20 0.27 0.34 0.46 0.71 0.80 0.79 0.86 1.10 1.33 1.76 2.08 2.64 3.15 3.22 3.33 3.63 3.85 3.77 3.77 3.59 3.30 3.05 2.94 2.79 2.57 2.49 2.21 2.48 2.64 2.92 3.30 3.46 3.37 3.45 3.58 3.39 3.40 3.41 3.43 3.46 3.81 4.02 4.09
0.12 0.13 0.19 0.20 0.20 0.21 0.31 0.59 0.61 0.77 0.86 0.84 1.00 1.16 1.55 2.01 2.30 2.64 2.87 3.27 3.72 4.17 4.26 4.21 4.21 4.16 4.13 3.79 3.38 3.02 2.96 2.69 2.62 2.62 2.55 2.81 3.15 3.41 3.35 3.33 3.19 3.18 3.25 3.43 3.47 3.62 3.86 3.73 3.81
0.18 0.31 0.47 0.37 0.29 0.26 0.40 0.93 1.00 0.92 0.87 0.96 1.10 1.39 1.66 1.97 2.38 2.62 2.93 3.30 3.74 4.31 4.74 4.82 4.30 4.33 4.43 4.38 4.06 3.57 3.48 3.34 3.16 2.85 2.71 2.70 2.99 3.11 3.17 3.01 2.91 2.96 2.85 3.01 3.30 3.38 3.49 3.64 3.81
0.22 0.33 0.43 0.48 0.33 0.30 0.46 1.02 1.32 1.05 0.87 0.99 1.24 1.51 1.86 2.11 2.54 2.67 2.85 3.13 3.64 4.60 5.56 5.58 5.09 4.68 4.43 4.42 4.48 4.31 4.12 3.82 3.35 3.11 3.00 2.85 2.72 2.53 2.65 2.73 2.83 2.66 2.63 2.75 2.64 3.22 3.46 3.59 3.71
0.18 0.23 0.38 0.55 0.37 0.35 0.52 0.97 1.02 0.97 1.09 1.06 1.11 1.29 1.61 1.75 2.06 2.33 2.63 3.19 4.03 5.29 6.12 6.04 5.42 5.03 4.74 4.56 4.42 4.41 4.16 3.91 3.45 3.26 3.08 2.79 2.77 2.42 2.49 2.50 2.62 2.49 2.65 2.89 3.12 3.46 3.44 3.33 3.41
0.15 0.20 0.32 0.40 0.33 0.43 0.57 0.86 0.96 1.05 1.24 1.22 1.09 1.11 1.39 1.59 1.88 2.35 2.91 3.75 4.86 5.84 6.16 5.68 5.22 4.95 4.57 4.21 3.63 3.32 3.45 3.42 3.19 2.86 2.50 2.45 2.34 2.40 2.67 2.43 2.67 2.51 2.65 2.79 2.91 3.12 3.16 3.02 3.10
0.15 0.21 0.32 0.38 0.29 0.35 0.59 0.94 1.24 1.20 1.12 1.08 1.16 1.18 1.27 1.62 2.07 2.79 3.82 4.41 4.69 4.86 4.62 4.31 4.10 3.95 3.46 3.21 3.14 2.95 3.05 2.80 2.64 2.56 2.66 2.27 2.13 2.20 2.19 2.53 2.54 2.57 2.81 2.83 2.85 3.07 2.99 2.75 2.87
0.18 0.22 0.30 0.37 0.27 0.34 0.63 1.18 1.47 1.38 1.13 0.98 1.07 1.12 1.27 1.66 2.25 3.07 3.67 3.80 3.55 3.23 3.11 3.08 3.21 3.00 2.89 2.96 2.91 2.86 2.98 2.70 2.52 2.48 2.63 2.24 1.94 1.93 2.04 2.19 2.39 2.66 2.55 2.75 2.85 2.77 2.89 2.93 2.88
0.20 0.15 0.13 0.17 0.27 0.52 0.76 1.47 1.62 1.39 1.30 1.09 1.12 1.14 1.16 1.41 1.80 2.23 2.51 2.41 2.50 2.63 2.65 2.80 2.93 2.70 2.73 2.70 2.46 2.41 2.40 2.30 2.27 2.34 2.45 2.49 2.04 1.86 1.86 1.98 2.20 2.43 2.32 2.63 2.40 2.60 2.95 3.05 2.84
0.09 0.08 0.11 0.18 0.34 0.58 0.80 1.19 1.39 1.17 1.32 1.11 1.00 0.99 0.92 1.11 1.28 1.41 1.51 1.63 1.83 1.96 2.14 2.42 2.71 2.70 2.56 2.39 2.39 2.46 2.32 2.31 2.31 2.35 2.45 2.55 2.32 2.01 1.80 1.92 2.15 2.28 2.24 2.32 2.38 2.79 2.83 2.79 2.79
0.08 0.11 0.21 0.33 0.53 1.07 1.05 1.09 1.34 1.32 1.34 1.16 1.00 0.83 0.83 0.96 1.11 1.18 1.21 1.33 1.51 1.66 1.89 2.14 2.51 2.61 2.56 2.39 2.29 2.35 2.43 2.43 2.39 2.44 2.43 2.25 2.22 2.18 1.99 2.00 2.18 2.16 2.16 2.22 2.29 2.58 2.59 2.75 2.88
0.10 0.15 0.40 0.77 1.15 1.32 0.87 0.96 1.25 1.16 1.02 0.90 0.69 0.63 0.72 0.90 1.05 1.17 1.19 1.20 1.27 1.43 1.57 1.67 1.93 2.20 2.31 2.26 2.23 2.25 2.43 2.37 2.21 2.14 2.11 2.10 1.90 1.85 1.91 2.01 2.21 2.08 2.07 2.15 2.43 2.58 2.57 2.73 2.77
0.09 0.11 0.25 0.44 0.54 0.69 0.86 1.25 1.37 1.14 0.76 0.51 0.49 0.61 0.77 0.90 0.97 1.09 1.11 1.07 1.10 1.19 1.37 1.53 1.84 2.00 2.19 2.21 2.19 2.23 2.32 2.22 2.06 2.10 1.89 1.88 1.81 1.72 1.81 1.93 1.96 1.95 2.00 2.04 2.48 2.38 2.46 2.64 2.54
0.10 0.11 0.11 0.18 0.24 0.49 0.88 1.18 1.15 0.98 0.75 0.59 0.55 0.60 0.76 0.81 0.81 0.93 0.98 1.11 1.17 1.12 1.24 1.42 1.73 2.06 2.28 2.36 2.41 2.34 2.33 2.33 2.28 2.21 1.96 1.76 1.89 1.79 1.88 1.97 1.98 2.01 2.19 2.35 2.57 2.40 2.44 2.59 2.40
0.10 0.12 0.15 0.16 0.25 0.42 0.72 1.15 1.37 1.20 0.95 0.79 0.70 0.67 0.75 0.77 0.80 1.02 1.20 1.26 1.13 0.99 1.06 1.21 1.53 2.03 2.30 2.46 2.42 2.24 2.39 2.30 2.29 2.20 2.01 1.84 1.83 1.88 2.00 2.16 2.15 2.22 2.27 2.39 2.52 2.31 2.44 2.49 2.38
0.10 0.12 0.16 0.17 0.18 0.27 0.57 0.83 0.81 0.83 0.78 0.75 0.80 0.76 0.63 0.69 0.85 1.09 1.35 1.34 1.10 0.93 0.93 1.08 1.46 1.81 2.05 2.22 2.29 2.15 2.10 2.03 2.02 2.03 1.97 1.96 1.97 1.95 1.96 2.10 2.16 2.14 2.18 2.28 2.40 2.22 2.30 2.31 2.34
0.12 0.14 0.18 0.22 0.20 0.19 0.33 0.59 0.46 0.55 0.64 0.72 0.83 0.89 0.84 0.87 0.93 1.00 1.16 1.30 1.19 1.06 1.00 1.21 1.51 1.72 1.85 1.96 2.01 1.98 1.98 1.97 1.88 1.83 1.89 1.96 1.88 1.80 1.85 1.93 1.91 1.83 1.96 2.15 2.18 2.08 2.18 2.26 2.25